SCP
0 0 0 0 0 0 0 0 0 0 0 0 0 0 0 0 0 0 0 0 0 0 0 0 0 0 0 0 0 0 0 0 0 0 0 0 0 0 0 0 0 0 0 0
0 0 0 0 0 0 0 0 0 0 0 0 0 0 0 0 0 0 0 0 0 0 0 0 0 0 0 0 0 0 0 0 0 0 0 0 0 0 0 0 0 0 0 0
0 0 0 0 0 0 0 0 0 0 0 0 0 -0 0 0 0 0 0 0 0 0 0 0 0 0 0 0 0 0 0 0 0 0 0 0 0 0 0 0 0 0 0 0
0 0 0 0 0 0 0 0 0 0 0 0 0 0 0 0 0 0 0 0 0 0 0 0 0 0 0 0 0 0 0 0 0 0 0 0 0 0 0 0 0 0 0 0
0 0 0 0 0 0 0 0 0 0 0 0 0 0 -0 -0 0 0 0 0 0 0 0 0 0 0 0 0 0 0 0 0 0 0 0 0 0 0 0 0 0 0 0 0
0 0 0 0 0 0 0 0 0 0 0 0 0 0 0 0 0 0 0 0 0 0 0 0 0 0 0 0 0 0 0 0 0 0 0 0 0 0 0 0 0 0 0 0
0 0 0 0 0 0 0 0 0 0 0 0 0 0 0 0 0 0 0 0 0 0 0 0 0 0 0 0 0 0 0 0 0 0 0 0 0 0 0 0 0 0 0 0
0 0 0 0 0 0 0 0 0 0 0 0 0 0 0 0 0 0 0 0 0 0 0 0 0 0 0 0 0 0 0 0 0 0 0 0 0 0 0 0 0 0 0 0
0 0 0 0 0 0 0 0 0 0 0 0 0 0 0 0 0 0 0 0 0 0 0 0 0 0 0 0 0 0 0 0 0 0 0 0 0 0 0 0 0 0 0 0
0 0 0 0 0 0 0 0 0 0 0 0 0 0 0 0 0 0 0 0 0 0 0 0 0 0 0 0 0 0 0 0 0 0 0 0 0 0 0 0 0 0 0 0
0 0 0 0 0 0 0 0 0 0 0 0 0 0 0 0 0 0 0 0 0 0 0 0 0 0 0 0 0 0 0 0 0 0 0 0 0 0 0 0 0 0 0 0
0 0 0 0 0 0 0 0 0 0 0 0 0 0 0 0 0 0 0 0 0 0 0 0 0 0 0 0 0 0 0 0 0 0 0 0 0 0 0 0 0 0 0 0
0 0 0 0 0 0 0 0 0 0 0 0 0 0 0 0 0 0 0 0 0 0 0 0 0 0 -0 0 0 0 0 0 0 0 0 0 0 0 0 0 0 0 0 0
0 0 0 0 0 0 0 0 0 0 0 0 0 0 0 0 0 0 0 0 0 0 0 0 0 0 0 0 0 0 0 0 0 0 0 0 0 0 0 0 0 0 0 0
0 0 0 0 0 0 0 0 0 0 0 0 0 0 0 0 0 0 0 0 0 0 0 0 0 0 0 0 0 0 0 0 0 0 0 0 0 0 0 0 0 0 0 0
0 0 0 0 0 0 0 0 0 0 0 0 0 0 0 0 0 0 0 0 0 0 0 0 0 0 0 0 0 0 0 0 0 0 0 0 0 0 0 0 0 0 0 0
0 0 0 0 0 0 0 0 0 0 0 0 0 0 0 0 0 0 0 0 0 0 0 0 0 0 0 0 0 0 0 0 0 0 0 0 0 0 0 0 0 0 0 0
0 0 0 0 0 0 0 0 0 0 0 0 0 0 0 0 0 0 0 0 0 0 0 0 0 0 0 0 0 0 0 -0 -0 -0 -0 -0 -0 0 0 0 0 0 0 0
0 0 0 0 0 0 0 0 0 0 0 0 0 0 0 0 0 0 0 0 0 0 0 0 0 0 0 0 0 0 -0 -0 -0 -0 -0 -0 -0 -0 -0 0 0 0 0 0
0 0 0 0 0 0 0 0 0 0 0 0 0 0 0 0 0 0 0 0 0 0 0 0 0 0 0 0 -0 -0 -0 -0 -0 -0 0 0 0 0 0 0 -0 0 0 0
0 0 0 0 0 0 0 0 0 0 0 0 0 0 0 0 0 0 0 0 0 0 0 0 0 0 0 -0 -0 -0 -0 -0 -0 0 0 0 0 0 0 0 0 0 0 0
0 0 0 0 0 0 0 0 0 0 0 0 0 0 0 0 0 0 0 0 0 0 0 0 0 0 0 0 0 0 0 0 0 0 0 0 0 0 0 0 0 0 0 0
0 0 0 0 0 0 0 0 0 0 0 0 0 0 0 0 0 0 0 0 0 0 0 0 0 0 0 0 0 0 0 0 0 0 0 0 0 0 0 0 0 0 0 0
0 0 0 0 0 0 0 0 0 0 0 0 0 -0 0 0 0 0 0 0 0 0 0 0 0 0 0 0 0 0 0 0 0 0 0 0 0 0 0 0 0 0 0 0
0 0 0 0 0 0 0 0 0 0 0 0 0 0 0 0 0 0 0 0 0 0 0 0 0 0 0 0 0 0 0 0 0 0 0 0 0 0 0 0 0 0 0 0
0 0 0 0 0 0 0 0 0 0 0 0 0 0 0 0 0 0 0 -0 -0 -0 -0 -0 0 0 0 0 0 0 0 0 0 0 0 0 0 0 0 0 0 0 0 0
Wind_Speed_500mb
31 11 27 26 26 22 18 15 6 16 15 16 18 20 27 48 45 43 43 41 43 41 42 38 40 43 45 51 56 60 62 61 62 63 66 72 75 74 74 76 73 71 71 67
12 33 24 24 26 26 22 20 14 18 9 3 13 27 26 40 42 43 48 48 48 47 47 48 50 49 53 56 59 64 67 66 68 67 68 72 74 77 79 80 82 79 79 76
33 8 35 25 23 28 26 23 15 12 10 9 11 37 39 30 64 66 56 59 52 50 53 55 53 48 52 60 60 61 63 65 69 71 69 69 71 74 82 88 90 90 88 85
26 37 34 30 36 25 27 12 11 4 6 8 8 15 19 16 19 39 59 50 50 51 54 61 60 56 56 38 49 55 55 55 60 67 74 77 79 84 87 91 91 92 93 94
16 28 34 33 35 28 14 16 18 13 10 10 13 16 8 14 20 23 18 45 39 39 38 33 31 24 22 24 23 26 44 51 54 59 70 77 81 84 84 84 89 91 92 94
24 10 25 29 23 20 16 13 14 8 4 17 13 18 10 18 21 13 11 23 26 20 21 14 12 8 13 20 29 34 35 45 49 51 59 72 83 84 85 87 85 87 94 97
10 2 5 14 17 14 23 21 4 4 8 14 22 21 30 21 20 12 15 18 3 4 6 4 6 14 19 25 23 16 13 12 14 22 51 60 70 81 89 90 87 88 94 100
23 17 19 11 15 15 34 26 10 15 11 7 17 16 13 9 17 15 4 11 4 7 4 8 5 6 7 7 17 14 17 23 28 28 26 28 57 67 81 90 94 93 92 97
25 23 10 9 13 27 22 34 18 5 3 3 11 12 19 12 13 26 16 15 19 16 15 13 5 5 20 26 25 29 26 28 30 32 32 30 30 39 65 80 89 92 95 98
14 12 10 14 9 23 21 14 13 8 9 9 11 13 11 4 10 8 15 30 38 24 13 5 13 18 18 21 27 29 34 40 40 43 41 40 41 41 44 57 78 89 94 94
21 14 5 12 19 24 14 26 15 10 14 10 4 10 21 26 6 11 6 40 32 22 11 1 14 19 18 20 27 31 31 33 37 41 47 51 50 50 52 52 57 70 82 92
26 6 8 24 5 8 37 17 37 16 15 9 7 11 13 9 9 8 32 29 23 17 6 14 13 15 21 28 28 29 32 34 39 42 47 49 53 55 56 56 56 57 66 76
22 12 11 8 5 8 14 28 33 36 6 16 10 18 26 27 7 17 44 28 23 18 8 13 16 19 25 25 26 27 30 38 39 42 47 49 52 57 58 60 63 63 64 70
39 10 20 25 27 18 24 39 36 38 27 34 21 18 29 22 16 24 31 35 27 15 14 21 23 27 25 26 29 30 36 39 43 50 55 54 53 57 61 62 62 64 67 73
18 27 12 9 8 22 29 36 51 47 49 31 47 39 42 42 26 22 36 28 12 17 25 22 25 30 27 31 32 36 40 41 47 54 58 61 58 59 63 64 63 66 66 67
20 13 12 6 7 14 6 23 37 52 55 45 36 31 40 70 44 32 42 23 23 32 32 30 29 34 30 33 38 42 47 49 59 64 63 63 65 64 67 67 66 65 68 66
23 15 14 18 20 9 3 44 33 26 39 46 41 52 46 44 41 40 27 34 53 42 33 38 35 39 29 36 42 46 50 58 68 75 76 72 70 72 73 76 76 73 67 67
17 18 7 7 17 13 17 19 42 38 35 41 45 42 44 54 76 40 50 65 46 46 54 43 42 45 32 39 42 46 54 64 76 84 87 84 82 81 80 81 81 80 77 73
15 9 6 9 6 16 24 7 19 27 45 45 44 45 61 74 49 58 81 52 74 67 57 55 49 48 34 41 44 55 66 76 86 90 89 87 89 89 87 87 88 87 84 83
6 17 10 5 9 19 8 24 51 11 38 20 41 50 56 55 15 35 30 41 41 44 46 49 47 42 42 50 53 62 75 83 91 93 90 91 92 92 95 96 97 94 92 87
12 10 25 17 11 15 12 7 42 18 10 18 43 61 49 19 35 34 22 18 23 28 34 35 41 48 56 62 63 76 85 91 94 88 87 89 97 102 100 101 102 104 100 97
19 19 12 12 18 37 25 35 37 19 15 7 1 9 10 19 17 18 20 28 26 30 30 35 50 56 69 69 74 90 100 104 97 96 98 98 97 106 111 108 105 105 105 104
11 17 13 23 14 4 49 19 59 21 17 9 4 2 2 5 5 9 11 15 25 34 41 44 54 79 77 77 83 97 108 102 96 96 101 104 106 108 111 115 113 109 107 103
9 17 7 9 11 12 33 44 27 63 43 31 26 19 15 16 18 24 33 38 43 47 53 60 69 77 88 91 100 106 106 98 98 103 107 106 105 107 108 110 112 109 109 105
10 17 11 7 9 6 22 39 38 35 27 15 15 19 25 28 22 22 30 39 47 54 61 69 81 96 109 107 109 104 102 99 101 104 109 107 106 108 110 112 112 114 109 101
6 10 15 5 9 15 15 16 2 11 14 16 20 24 26 35 46 55 64 69 74 80 84 87 92 99 109 108 113 109 98 93 98 110 113 113 113 112 111 116 122 111 111 105
Wind_Direction_500mb
197 194 205 192 215 220 258 232 277 234 260 188 232 254 262 273 268 255 252 239 239 252 256 258 253 247 242 248 240 240 245 245 242 240 239 237 240 242 243 245 246 245 244 243
175 224 205 216 203 232 234 251 252 288 271 69 305 281 282 281 270 252 252 251 250 252 249 251 252 253 250 245 248 245 244 245 248 249 247 245 245 248 250 251 249 247 247 247
205 189 213 211 217 202 223 233 238 253 342 299 293 279 254 238 250 259 250 247 252 254 259 258 255 256 258 254 254 256 252 247 248 255 254 251 248 247 248 249 250 250 249 249
226 224 199 210 214 204 223 202 264 295 328 247 90 287 294 317 262 240 249 241 245 251 258 260 262 266 259 274 262 254 258 257 251 250 252 254 253 251 257 256 257 255 253 252
201 186 205 207 215 200 215 188 217 232 246 310 252 283 255 205 263 273 234 209 215 244 248 258 264 265 254 251 252 247 249 255 256 257 253 256 253 259 263 258 257 260 259 256
212 170 203 213 194 202 124 94 55 61 42 256 187 218 220 223 231 231 211 206 218 245 238 240 223 272 287 270 259 249 257 245 247 252 256 252 254 259 261 258 253 254 259 260
225 245 297 179 172 154 144 141 141 203 201 239 170 202 241 282 314 293 294 303 251 105 121 150 285 283 284 258 271 262 271 276 279 278 255 251 259 260 262 264 259 253 255 257
184 206 211 193 202 178 180 175 169 183 201 242 189 236 229 136 45 52 152 108 113 52 131 167 90 75 46 190 324 314 302 297 298 301 293 280 257 257 260 261 261 258 254 258
188 221 178 189 194 152 186 216 198 70 12 32 209 263 313 266 293 280 219 264 219 141 144 134 117 347 341 336 329 326 318 314 310 305 291 280 276 271 261 263 264 263 260 256
180 202 183 189 205 220 186 147 180 190 201 233 242 239 238 146 200 190 170 121 126 135 158 128 15 354 329 326 328 332 329 322 316 311 309 294 285 278 276 269 264 264 265 261
215 194 196 132 206 180 192 198 206 162 226 201 219 235 191 222 139 162 157 138 140 151 168 313 327 313 307 301 312 318 320 325 325 322 316 309 304 292 285 276 270 267 266 264
202 134 164 200 45 265 213 210 201 201 203 239 279 251 297 297 326 263 134 135 152 173 194 330 327 327 319 324 326 329 329 329 330 328 329 324 320 310 298 291 283 278 275 270
157 201 133 115 30 304 213 221 214 224 236 197 185 248 244 289 324 283 150 166 202 203 235 326 323 321 335 340 335 330 329 329 328 328 328 331 334 328 315 302 298 289 282 277
160 169 214 198 212 130 203 221 224 213 219 225 222 251 260 249 231 147 173 205 202 232 298 320 316 306 320 322 321 324 326 332 335 336 336 330 327 328 325 311 300 297 291 284
154 203 208 264 27 191 196 201 208 210 219 211 225 223 245 255 238 214 212 195 191 257 268 267 277 283 295 315 319 325 331 335 336 337 337 337 330 324 326 325 309 301 294 289
174 231 176 204 28 345 230 200 212 216 223 227 237 237 238 255 252 239 246 193 229 241 237 242 257 265 284 313 316 317 322 327 330 332 331 332 332 327 322 324 325 313 305 297
159 176 171 223 157 146 272 232 218 227 228 223 225 235 240 249 258 247 264 277 265 250 242 241 247 258 286 313 314 312 316 322 325 326 327 328 327 328 328 323 322 324 314 304
147 182 161 143 138 211 236 188 208 217 230 228 241 246 241 245 256 268 260 251 249 255 263 245 244 253 285 310 312 313 314 318 320 321 322 322 324 322 324 324 324 321 319 310
168 135 139 162 204 312 280 190 177 197 241 232 233 240 247 252 261 264 257 265 260 259 260 255 248 251 286 307 319 320 318 317 318 319 320 320 319 318 319 319 321 323 318 313
90 183 179 130 202 218 345 206 183 133 260 182 220 235 239 243 214 252 268 266 263 259 255 246 247 242 286 313 318 317 318 317 316 316 314 315 315 316 317 318 318 319 320 312
162 173 205 197 230 271 203 136 142 157 249 206 218 231 243 226 234 249 253 271 255 252 239 234 236 263 287 309 307 307 313 315 315 310 307 307 308 310 311 313 315 315 315 315
166 169 191 197 221 251 173 148 176 205 196 191 219 251 258 248 251 254 257 256 244 231 235 256 277 285 296 297 300 305 307 312 310 305 302 300 298 299 303 307 309 311 312 311
198 185 180 189 215 247 173 191 201 161 176 223 245 157 51 35 351 318 295 259 257 272 279 273 271 287 293 297 302 302 305 308 306 302 299 298 298 298 299 301 304 306 308 308
227 212 184 97 228 197 211 219 223 231 263 287 291 288 291 291 286 278 276 275 275 279 287 292 295 296 294 296 298 299 301 302 300 296 296 299 300 300 301 300 300 301 302 305
185 143 174 271 310 342 230 231 247 268 286 281 276 293 295 298 303 300 294 295 297 298 296 294 293 293 294 298 298 298 298 297 294 294 297 298 298 299 299 297 297 297 295 297
196 168 188 178 7 230 76 69 269 260 298 328 323 307 305 309 308 306 305 304 303 302 301 299 298 297 297 298 297 297 296 293 292 293 294 296 298 297 296 295 296 295 296 296
Wind_Speed_850mb
31 11 27 26 26 22 18 15 6 16 15 16 18 20 27 48 45 43 43 41 43 41 42 38 40 43 45 51 56 60 62 61 62 63 66 72 75 74 74 76 73 71 71 67
12 33 24 24 26 26 22 20 14 18 9 3 13 27 26 40 42 43 48 48 48 47 47 48 50 49 53 56 59 64 67 66 68 67 68 72 74 77 79 80 82 79 79 76
33 8 35 25 23 28 26 23 15 12 10 9 11 37 39 30 64 66 56 59 52 50 53 55 53 48 52 60 60 61 63 65 69 71 69 69 71 74 82 88 90 90 88 85
26 37 34 30 36 25 27 12 11 4 6 8 8 15 19 16 19 39 59 50 50 51 54 61 60 56 56 38 49 55 55 55 60 67 74 77 79 84 87 91 91 92 93 94
16 28 34 33 35 28 14 16 18 13 10 10 13 16 8 14 20 23 18 45 39 39 38 33 31 24 22 24 23 26 44 51 54 59 70 77 81 84 84 84 89 91 92 94
24 10 25 29 23 20 16 13 14 8 4 17 13 18 10 18 21 13 11 23 26 20 21 14 12 8 13 20 29 34 35 45 49 51 59 72 83 84 85 87 85 87 94 97
10 2 5 14 17 14 23 21 4 4 8 14 22 21 30 21 20 12 15 18 3 4 6 4 6 14 19 25 23 16 13 12 14 22 51 60 70 81 89 90 87 88 94 100
23 17 19 11 15 15 34 26 10 15 11 7 17 16 13 9 17 15 4 11 4 7 4 8 5 6 7 7 17 14 17 23 28 28 26 28 57 67 81 90 94 93 92 97
25 23 10 9 13 27 22 34 18 5 3 3 11 12 19 12 13 26 16 15 19 16 15 13 5 5 20 26 25 29 26 28 30 32 32 30 30 39 65 80 89 92 95 98
14 12 10 14 9 23 21 14 13 8 9 9 11 13 11 4 10 8 15 30 38 24 13 5 13 18 18 21 27 29 34 40 40 43 41 40 41 41 44 57 78 89 94 94
21 14 5 12 19 24 14 26 15 10 14 10 4 10 21 26 6 11 6 40 32 22 11 1 14 19 18 20 27 31 31 33 37 41 47 51 50 50 52 52 57 70 82 92
26 6 8 24 5 8 37 17 37 16 15 9 7 11 13 9 9 8 32 29 23 17 6 14 13 15 21 28 28 29 32 34 39 42 47 49 53 55 56 56 56 57 66 76
22 12 11 8 5 8 14 28 33 36 6 16 10 18 26 27 7 17 44 28 23 18 8 13 16 19 25 25 26 27 30 38 39 42 47 49 52 57 58 60 63 63 64 70
39 10 20 25 27 18 24 39 36 38 27 34 21 18 29 22 16 24 31 35 27 15 14 21 23 27 25 26 29 30 36 39 43 50 55 54 53 57 61 62 62 64 67 73
18 27 12 9 8 22 29 36 51 47 49 31 47 39 42 42 26 22 36 28 12 17 25 22 25 30 27 31 32 36 40 41 47 54 58 61 58 59 63 64 63 66 66 67
20 13 12 6 7 14 6 23 37 52 55 45 36 31 40 70 44 32 42 23 23 32 32 30 29 34 30 33 38 42 47 49 59 64 63 63 65 64 67 67 66 65 68 66
23 15 14 18 20 9 3 44 33 26 39 46 41 52 46 44 41 40 27 34 53 42 33 38 35 39 29 36 42 46 50 58 68 75 76 72 70 72 73 76 76 73 67 67
17 18 7 7 17 13 17 19 42 38 35 41 45 42 44 54 76 40 50 65 46 46 54 43 42 45 32 39 42 46 54 64 76 84 87 84 82 81 80 81 81 80 77 73
15 9 6 9 6 16 24 7 19 27 45 45 44 45 61 74 49 58 81 52 74 67 57 55 49 48 34 41 44 55 66 76 86 90 89 87 89 89 87 87 88 87 84 83
6 17 10 5 9 19 8 24 51 11 38 20 41 50 56 55 15 35 30 41 41 44 46 49 47 42 42 50 53 62 75 83 91 93 90 91 92 92 95 96 97 94 92 87
12 10 25 17 11 15 12 7 42 18 10 18 43 61 49 19 35 34 22 18 23 28 34 35 41 48 56 62 63 76 85 91 94 88 87 89 97 102 100 101 102 104 100 97
19 19 12 12 18 37 25 35 37 19 15 7 1 9 10 19 17 18 20 28 26 30 30 35 50 56 69 69 74 90 100 104 97 96 98 98 97 106 111 108 105 105 105 104
11 17 13 23 14 4 49 19 59 21 17 9 4 2 2 5 5 9 11 15 25 34 41 44 54 79 77 77 83 97 108 102 96 96 101 104 106 108 111 115 113 109 107 103
9 17 7 9 11 12 33 44 27 63 43 31 26 19 15 16 18 24 33 38 43 47 53 60 69 77 88 91 100 106 106 98 98 103 107 106 105 107 108 110 112 109 109 105
10 17 11 7 9 6 22 39 38 35 27 15 15 19 25 28 22 22 30 39 47 54 61 69 81 96 109 107 109 104 102 99 101 104 109 107 106 108 110 112 112 114 109 101
6 10 15 5 9 15 15 16 2 11 14 16 20 24 26 35 46 55 64 69 74 80 84 87 92 99 109 108 113 109 98 93 98 110 113 113 113 112 111 116 122 111 111 105
Wind_Direction_850mb
197 194 205 192 215 220 258 232 277 234 260 188 232 254 262 273 268 255 252 239 239 252 256 258 253 247 242 248 240 240 245 245 242 240 239 237 240 242 243 245 246 245 244 243
175 224 205 216 203 232 234 251 252 288 271 69 305 281 282 281 270 252 252 251 250 252 249 251 252 253 250 245 248 245 244 245 248 249 247 245 245 248 250 251 249 247 247 247
205 189 213 211 217 202 223 233 238 253 342 299 293 279 254 238 250 259 250 247 252 254 259 258 255 256 258 254 254 256 252 247 248 255 254 251 248 247 248 249 250 250 249 249
226 224 199 210 214 204 223 202 264 295 328 247 90 287 294 317 262 240 249 241 245 251 258 260 262 266 259 274 262 254 258 257 251 250 252 254 253 251 257 256 257 255 253 252
201 186 205 207 215 200 215 188 217 232 246 310 252 283 255 205 263 273 234 209 215 244 248 258 264 265 254 251 252 247 249 255 256 257 253 256 253 259 263 258 257 260 259 256
212 170 203 213 194 202 124 94 55 61 42 256 187 218 220 223 231 231 211 206 218 245 238 240 223 272 287 270 259 249 257 245 247 252 256 252 254 259 261 258 253 254 259 260
225 245 297 179 172 154 144 141 141 203 201 239 170 202 241 282 314 293 294 303 251 105 121 150 285 283 284 258 271 262 271 276 279 278 255 251 259 260 262 264 259 253 255 257
184 206 211 193 202 178 180 175 169 183 201 242 189 236 229 136 45 52 152 108 113 52 131 167 90 75 46 190 324 314 302 297 298 301 293 280 257 257 260 261 261 258 254 258
188 221 178 189 194 152 186 216 198 70 12 32 209 263 313 266 293 280 219 264 219 141 144 134 117 347 341 336 329 326 318 314 310 305 291 280 276 271 261 263 264 263 260 256
180 202 183 189 205 220 186 147 180 190 201 233 242 239 238 146 200 190 170 121 126 135 158 128 15 354 329 326 328 332 329 322 316 311 309 294 285 278 276 269 264 264 265 261
215 194 196 132 206 180 192 198 206 162 226 201 219 235 191 222 139 162 157 138 140 151 168 313 327 313 307 301 312 318 320 325 325 322 316 309 304 292 285 276 270 267 266 264
202 134 164 200 45 265 213 210 201 201 203 239 279 251 297 297 326 263 134 135 152 173 194 330 327 327 319 324 326 329 329 329 330 328 329 324 320 310 298 291 283 278 275 270
157 201 133 115 30 304 213 221 214 224 236 197 185 248 244 289 324 283 150 166 202 203 235 326 323 321 335 340 335 330 329 329 328 328 328 331 334 328 315 302 298 289 282 277
160 169 214 198 212 130 203 221 224 213 219 225 222 251 260 249 231 147 173 205 202 232 298 320 316 306 320 322 321 324 326 332 335 336 336 330 327 328 325 311 300 297 291 284
154 203 208 264 27 191 196 201 208 210 219 211 225 223 245 255 238 214 212 195 191 257 268 267 277 283 295 315 319 325 331 335 336 337 337 337 330 324 326 325 309 301 294 289
174 231 176 204 28 345 230 200 212 216 223 227 237 237 238 255 252 239 246 193 229 241 237 242 257 265 284 313 316 317 322 327 330 332 331 332 332 327 322 324 325 313 305 297
159 176 171 223 157 146 272 232 218 227 228 223 225 235 240 249 258 247 264 277 265 250 242 241 247 258 286 313 314 312 316 322 325 326 327 328 327 328 328 323 322 324 314 304
147 182 161 143 138 211 236 188 208 217 230 228 241 246 241 245 256 268 260 251 249 255 263 245 244 253 285 310 312 313 314 318 320 321 322 322 324 322 324 324 324 321 319 310
168 135 139 162 204 312 280 190 177 197 241 232 233 240 247 252 261 264 257 265 260 259 260 255 248 251 286 307 319 320 318 317 318 319 320 320 319 318 319 319 321 323 318 313
90 183 179 130 202 218 345 206 183 133 260 182 220 235 239 243 214 252 268 266 263 259 255 246 247 242 286 313 318 317 318 317 316 316 314 315 315 316 317 318 318 319 320 312
162 173 205 197 230 271 203 136 142 157 249 206 218 231 243 226 234 249 253 271 255 252 239 234 236 263 287 309 307 307 313 315 315 310 307 307 308 310 311 313 315 315 315 315
166 169 191 197 221 251 173 148 176 205 196 191 219 251 258 248 251 254 257 256 244 231 235 256 277 285 296 297 300 305 307 312 310 305 302 300 298 299 303 307 309 311 312 311
198 185 180 189 215 247 173 191 201 161 176 223 245 157 51 35 351 318 295 259 257 272 279 273 271 287 293 297 302 302 305 308 306 302 299 298 298 298 299 301 304 306 308 308
227 212 184 97 228 197 211 219 223 231 263 287 291 288 291 291 286 278 276 275 275 279 287 292 295 296 294 296 298 299 301 302 300 296 296 299 300 300 301 300 300 301 302 305
185 143 174 271 310 342 230 231 247 268 286 281 276 293 295 298 303 300 294 295 297 298 296 294 293 293 294 298 298 298 298 297 294 294 297 298 298 299 299 297 297 297 295 297
196 168 188 178 7 230 76 69 269 260 298 328 323 307 305 309 308 306 305 304 303 302 301 299 298 297 297 298 297 297 296 293 292 293 294 296 298 297 296 295 296 295 296 296